,,PA_Meas_PMT16A,,PR_Meas_QMR101_102,,RH_Meas_QMH101,,SR_Meas_QMS101,,TA_Meas_QMH101,,GenWind,,GenWind,
time,status,PA,status,PR,status,RH,status,SR,status,TA,status,DirAvg,status,SpdAvg,
2014-03-27, 07:30:04,VALID,916.493,VALID,0,VALID,94.5456,VALID,58.0182,VALID,20.678,VALID,115,VALID,0.608984,
2014-03-27, 07:31:04,VALID,916.473,VALID,0,VALID,94.4313,VALID,60.4894,VALID,20.6569,VALID,128,VALID,0.762891,
2014-03-27, 07:32:04,VALID,916.483,VALID,0,VALID,94.294,VALID,63.1754,VALID,20.6795,VALID,119,VALID,1.53828,
2014-03-27, 07:33:04,VALID,916.544,VALID,0,VALID,94.1492,VALID,65.9689,VALID,20.6975,VALID,122,VALID,0.978516,
2014-03-27, 07:34:04,VALID,916.586,VALID,0,VALID,93.9738,VALID,68.7623,VALID,20.7365,VALID,129,VALID,1.31562,
2014-03-27, 07:35:04,VALID,916.562,VALID,0,VALID,93.6308,VALID,71.0186,VALID,20.7966,VALID,139,VALID,1.32422,
2014-03-27, 07:36:04,VALID,916.565,VALID,0,VALID,93.2801,VALID,72.9525,VALID,20.8356,VALID,133,VALID,1.68789,
2014-03-27, 07:37:04,VALID,916.598,VALID,0,VALID,92.9218,VALID,74.6716,VALID,20.8746,VALID,137,VALID,1.92344,
2014-03-27, 07:38:04,VALID,916.62,VALID,0,VALID,92.6016,VALID,76.2832,VALID,20.8925,VALID,142,VALID,1.37148,
2014-03-27, 07:39:04,VALID,916.602,VALID,0,VALID,92.3424,VALID,78.2172,VALID,20.9316,VALID,129,VALID,1.53359,
2014-03-27, 07:40:04,VALID,916.582,VALID,0,VALID,92.1061,VALID,80.9032,VALID,20.9917,VALID,130,VALID,1.69141,
2014-03-27, 07:41:04,VALID,916.603,VALID,0,VALID,91.8164,VALID,84.1264,VALID,21.0096,VALID,128,VALID,1.27773,
2014-03-27, 07:42:04,VALID,916.599,VALID,0,VALID,91.481,VALID,87.0273,VALID,21.0681,VALID,124,VALID,2.15547,
2014-03-27, 07:43:04,VALID,916.557,VALID,0,VALID,91.1608,VALID,88.8538,VALID,21.0876,VALID,119,VALID,1.975,
2014-03-27, 07:44:04,VALID,916.582,VALID,0,VALID,91.0236,VALID,90.358,VALID,21.1673,VALID,110,VALID,1.70742,
2014-03-27, 07:45:04,VALID,916.539,VALID,0,VALID,90.8101,VALID,91.2175,VALID,21.1868,VALID,123,VALID,2.30625,
2014-03-27, 07:46:04,VALID,916.569,VALID,0,VALID,90.4137,VALID,91.9696,VALID,21.2063,VALID,111,VALID,1.63555,
2014-03-27, 07:47:04,VALID,916.541,VALID,0,VALID,90.2231,VALID,92.6143,VALID,21.2648,VALID,129,VALID,1.79102,
2014-03-27, 07:48:04,VALID,916.542,VALID,0,VALID,90.0783,VALID,93.3664,VALID,21.2648,VALID,125,VALID,1.56094,
2014-03-27, 07:49:04,VALID,916.562,VALID,0,VALID,90.2079,VALID,94.5482,VALID,21.2632,VALID,116,VALID,1.70352,
2014-03-27, 07:50:04,VALID,916.553,VALID,0,VALID,90.2155,VALID,95.8375,VALID,21.2843,VALID,136,VALID,1.36055,
2014-03-27, 07:51:04,VALID,916.57,VALID,0,VALID,90.4976,VALID,97.3417,VALID,21.3038,VALID,98,VALID,1.21055,
2014-03-27, 07:52:04,VALID,916.545,VALID,0,VALID,90.2384,VALID,99.3831,VALID,21.2632,VALID,127,VALID,1.7168,
2014-03-27, 07:53:04,VALID,916.559,VALID,0,VALID,90.2612,VALID,101.21,VALID,21.2843,VALID,145,VALID,1.74727,
2014-03-27, 07:54:04,VALID,916.579,VALID,0,VALID,90.5357,VALID,103.251,VALID,21.2827,VALID,138,VALID,1.70195,
2014-03-27, 07:55:04,VALID,916.56,VALID,0,VALID,90.7187,VALID,105.292,VALID,21.2437,VALID,142,VALID,1.53555,
2014-03-27, 07:56:04,VALID,916.588,VALID,0,VALID,91.1227,VALID,107.119,VALID,21.2258,VALID,137,VALID,1.83711,
2014-03-27, 07:57:04,VALID,916.539,VALID,0,VALID,91.2294,VALID,108.838,VALID,21.1852,VALID,131,VALID,1.71289,
2014-03-27, 07:58:04,VALID,916.557,VALID,0,VALID,91.4886,VALID,110.127,VALID,21.1852,VALID,153,VALID,1.90508,
2014-03-27, 07:59:04,VALID,916.54,VALID,0,VALID,91.7173,VALID,111.094,VALID,21.1852,VALID,156,VALID,1.49414,
2014-03-27, 08:00:04,VALID,916.566,VALID,0,VALID,91.8545,VALID,112.276,VALID,21.1836,VALID,161,VALID,1.84375,
2014-03-27, 08:01:04,VALID,916.55,VALID,0,VALID,91.8774,VALID,113.888,VALID,21.2031,VALID,171,VALID,2.00195,
2014-03-27, 08:02:04,VALID,916.573,VALID,0,VALID,91.9689,VALID,116.359,VALID,21.2226,VALID,177,VALID,1.78125,
2014-03-27, 08:03:04,VALID,916.533,VALID,0,VALID,92.0299,VALID,119.797,VALID,21.2226,VALID,160,VALID,1.49805,
2014-03-27, 08:04:04,VALID,916.556,VALID,0,VALID,92.0223,VALID,123.665,VALID,21.2226,VALID,174,VALID,2.01367,
2014-03-27, 08:05:04,VALID,916.583,VALID,0,VALID,92.068,VALID,127.533,VALID,21.2031,VALID,181,VALID,1.8918,
2014-03-27, 08:06:04,VALID,916.589,VALID,0,VALID,92.1595,VALID,130.756,VALID,21.2226,VALID,167,VALID,1.40664,
2014-03-27, 08:07:04,VALID,916.613,VALID,0,VALID,92.2281,VALID,133.764,VALID,21.2226,VALID,189,VALID,1.7918,
2014-03-27, 08:08:04,VALID,916.65,VALID,0,VALID,92.4492,VALID,137.202,VALID,21.2616,VALID,179,VALID,1.04805,
2014-03-27, 08:09:04,VALID,916.716,VALID,0,VALID,92.5559,VALID,141.393,VALID,21.3006,VALID,160,VALID,0.939844,
2014-03-27, 08:10:04,VALID,916.74,VALID,0,VALID,92.5635,VALID,146.013,VALID,21.3396,VALID,163,VALID,1.24023,
2014-03-27, 08:11:04,VALID,916.754,VALID,0,VALID,92.1823,VALID,151.492,VALID,21.3006,VALID,189,VALID,1.22578,
2014-03-27, 08:12:04,VALID,916.776,VALID,0,VALID,92.1061,VALID,158.153,VALID,21.3201,VALID,152,VALID,1.44336,
2014-03-27, 08:13:04,VALID,916.766,VALID,0,VALID,92.0223,VALID,177.278,VALID,21.3217,VALID,162,VALID,1.40469,
2014-03-27, 08:14:04,VALID,916.793,VALID,0,VALID,92.1747,VALID,184.799,VALID,21.3396,VALID,180,VALID,0.971875,
2014-03-27, 08:15:04,VALID,916.843,VALID,0,VALID,92.0299,VALID,235.618,VALID,21.3786,VALID,146,VALID,1.28789,
2014-03-27, 08:16:04,VALID,916.83,VALID,0,VALID,91.7402,VALID,207.899,VALID,21.4388,VALID,145,VALID,0.655078,
2014-03-27, 08:17:04,VALID,916.881,VALID,0,VALID,91.7097,VALID,212.841,VALID,21.5559,VALID,139,VALID,0.975391,
2014-03-27, 08:18:04,VALID,916.878,VALID,0,VALID,91.6258,VALID,223.478,VALID,21.6534,VALID,143,VALID,0.90625,
2014-03-27, 08:19:04,VALID,916.88,VALID,0,VALID,91.2752,VALID,211.122,VALID,21.751,VALID,125,VALID,0.696484,
2014-03-27, 08:20:04,VALID,916.924,VALID,0,VALID,91.0922,VALID,204.675,VALID,21.8664,VALID,127,VALID,1.09883,
2014-03-27, 08:21:04,VALID,916.962,VALID,0,VALID,90.3299,VALID,203.494,VALID,21.9461,VALID,146,VALID,1.02578,
2014-03-27, 08:22:04,VALID,916.975,VALID,0,VALID,89.2092,VALID,206.072,VALID,21.9835,VALID,161,VALID,1.50391,
2014-03-27, 08:23:04,VALID,917.014,VALID,0,VALID,88.6908,VALID,212.196,VALID,22.042,VALID,137,VALID,1.28633,
2014-03-27, 08:24:04,VALID,917.03,VALID,0,VALID,88.6984,VALID,219.502,VALID,22.1217,VALID,136,VALID,1.86992,
2014-03-27, 08:25:04,VALID,917.02,VALID,0,VALID,88.4011,VALID,226.916,VALID,22.1786,VALID,161,VALID,1.48398,
2014-03-27, 08:26:04,VALID,917.034,VALID,0,VALID,88.2258,VALID,224.552,VALID,22.2583,VALID,162,VALID,1.93672,
2014-03-27, 08:27:04,VALID,917.052,VALID,0,VALID,87.9666,VALID,211.014,VALID,22.2371,VALID,146,VALID,1.45547,
2014-03-27, 08:28:04,VALID,917.09,VALID,0,VALID,87.6312,VALID,198.014,VALID,22.1981,VALID,157,VALID,2.0082,
2014-03-27, 08:29:04,VALID,917.101,VALID,0,VALID,87.9132,VALID,188.559,VALID,22.2176,VALID,157,VALID,1.80469,
2014-03-27, 08:30:04,VALID,917.131,VALID,0,VALID,88.3249,VALID,179.212,VALID,22.2583,VALID,155,VALID,1.26719,
2014-03-27, 08:31:04,VALID,917.161,VALID,0,VALID,88.9576,VALID,170.079,VALID,22.3169,VALID,136,VALID,1.06055,
2014-03-27, 08:32:04,VALID,917.161,VALID,0,VALID,88.5079,VALID,163.203,VALID,22.2762,VALID,147,VALID,1.48242,
2014-03-27, 08:33:04,VALID,917.211,VALID,0,VALID,88.4621,VALID,160.947,VALID,22.2567,VALID,157,VALID,1.42109,
2014-03-27, 08:34:04,VALID,917.194,VALID,0,VALID,88.9348,VALID,162.773,VALID,22.2567,VALID,118,VALID,1.44102,
2014-03-27, 08:35:04,VALID,917.249,VALID,0,VALID,89.0949,VALID,167.178,VALID,22.2371,VALID,131,VALID,1.00977,
2014-03-27, 08:36:04,VALID,917.226,VALID,0,VALID,88.7518,VALID,170.617,VALID,22.1396,VALID,146,VALID,1.72812,
2014-03-27, 08:37:04,VALID,917.262,VALID,0,VALID,89.072,VALID,174.699,VALID,22.1201,VALID,157,VALID,1.61211,
2014-03-27, 08:38:04,VALID,917.281,VALID,0,VALID,89.6285,VALID,179.212,VALID,22.1201,VALID,146,VALID,1.6457,
2014-03-27, 08:39:04,VALID,917.301,VALID,0,VALID,89.5523,VALID,183.617,VALID,22.081,VALID,151,VALID,1.52031,
2014-03-27, 08:40:04,VALID,917.323,VALID,0,VALID,89.9639,VALID,185.873,VALID,22.081,VALID,154,VALID,1.56016,
2014-03-27, 08:41:04,VALID,917.353,VALID,0,VALID,90.185,VALID,184.799,VALID,22.1201,VALID,143,VALID,1.63711,
2014-03-27, 08:42:04,VALID,917.375,VALID,0,VALID,89.8725,VALID,181.576,VALID,22.1005,VALID,150,VALID,2.27891,
2014-03-27, 08:43:04,VALID,917.357,VALID,0,VALID,89.8343,VALID,177.493,VALID,22.0794,VALID,158,VALID,1.27148,
2014-03-27, 08:44:04,VALID,917.327,VALID,0,VALID,89.5751,VALID,175.774,VALID,22.0989,VALID,153,VALID,1.88125,
2014-03-27, 08:45:04,VALID,917.357,VALID,0,VALID,89.8801,VALID,172.658,VALID,22.1591,VALID,148,VALID,1.35273,
2014-03-27, 08:46:04,VALID,917.331,VALID,0,VALID,89.5218,VALID,173.517,VALID,22.1803,VALID,143,VALID,2.38086,
2014-03-27, 08:47:04,VALID,917.376,VALID,0,VALID,89.6971,VALID,177.385,VALID,22.1591,VALID,138,VALID,1.4875,
2014-03-27, 08:48:04,VALID,917.348,VALID,0,VALID,89.5599,VALID,180.394,VALID,22.1786,VALID,157,VALID,1.57891,
2014-03-27, 08:49:04,VALID,917.34,VALID,0,VALID,89.2473,VALID,180.071,VALID,22.1786,VALID,139,VALID,1.92461,
2014-03-27, 08:50:04,VALID,917.361,VALID,0,VALID,88.6527,VALID,179.534,VALID,22.1964,VALID,137,VALID,2.17461,
2014-03-27, 08:51:04,VALID,917.339,VALID,0,VALID,88.1648,VALID,179.427,VALID,22.2371,VALID,125,VALID,2.41758,
2014-03-27, 08:52:04,VALID,917.348,VALID,0,VALID,88.9576,VALID,179.856,VALID,22.2957,VALID,121,VALID,1.15352,
2014-03-27, 08:53:04,VALID,917.338,VALID,0,VALID,89.2778,VALID,182.113,VALID,22.3559,VALID,133,VALID,1.18359,
2014-03-27, 08:54:04,VALID,917.341,VALID,0,VALID,88.8585,VALID,187.055,VALID,22.3737,VALID,137,VALID,2.23906,
2014-03-27, 08:55:04,VALID,917.319,VALID,0,VALID,88.3401,VALID,194.254,VALID,22.3933,VALID,118,VALID,2.76641,
2014-03-27, 08:56:04,VALID,917.356,VALID,0,VALID,88.3325,VALID,204.783,VALID,22.4128,VALID,129,VALID,1.90547,
2014-03-27, 08:57:04,VALID,917.344,VALID,0,VALID,87.9742,VALID,221.973,VALID,22.4713,VALID,136,VALID,1.14688,
2014-03-27, 08:58:04,VALID,917.324,VALID,0,VALID,87.2805,VALID,216.279,VALID,22.5299,VALID,138,VALID,1.92891,
2014-03-27, 08:59:04,VALID,917.329,VALID,0,VALID,86.4114,VALID,216.709,VALID,22.5689,VALID,143,VALID,2.16016,
2014-03-27, 09:00:04,VALID,917.348,VALID,0,VALID,86.8078,VALID,230.998,VALID,22.5689,VALID,143,VALID,1.66055,
2014-03-27, 09:01:04,VALID,917.382,VALID,0,VALID,86.846,VALID,265.272,VALID,22.5689,VALID,124,VALID,1.96328,
2014-03-27, 09:02:04,VALID,917.382,VALID,0,VALID,87.0975,VALID,513.569,VALID,22.647,VALID,150,VALID,1.77227,
2014-03-27, 09:03:04,VALID,917.409,VALID,0,VALID,86.8002,VALID,585.125,VALID,22.7445,VALID,160,VALID,1.73242,
2014-03-27, 09:04:04,VALID,917.428,VALID,0,VALID,87.715,VALID,585.662,VALID,22.9592,VALID,145,VALID,1.11445,
2014-03-27, 09:05:04,VALID,917.462,VALID,0,VALID,85.9464,VALID,567.934,VALID,23.1154,VALID,139,VALID,2.62656,
2014-03-27, 09:06:04,VALID,917.46,VALID,0,VALID,85.6186,VALID,604.249,VALID,23.2502,VALID,159,VALID,2.3293,
2014-03-27, 09:07:04,VALID,917.5,VALID,0,VALID,84.8715,VALID,621.332,VALID,23.4472,VALID,170,VALID,1.55117,
2014-03-27, 09:08:04,VALID,917.517,VALID,0,VALID,83.2248,VALID,602.745,VALID,23.543,VALID,153,VALID,2.29336,
2014-03-27, 09:09:04,VALID,917.483,VALID,0,VALID,82.3405,VALID,523.776,VALID,23.6016,VALID,152,VALID,1.84102,
2014-03-27, 09:10:04,VALID,917.524,VALID,0,VALID,82.5311,VALID,593.183,VALID,23.5235,VALID,166,VALID,1.75781,
2014-03-27, 09:11:04,VALID,917.507,VALID,0,VALID,84.0558,VALID,574.918,VALID,23.6034,VALID,141,VALID,1.12266,
2014-03-27, 09:12:04,VALID,917.508,VALID,0,VALID,81.7535,VALID,464.038,VALID,23.6442,VALID,160,VALID,2.19609,
2014-03-27, 09:13:04,VALID,917.478,VALID,0,VALID,82.6073,VALID,615.315,VALID,23.6229,VALID,193,VALID,0.961719,
2014-03-27, 09:14:04,VALID,917.482,VALID,0,VALID,81.6315,VALID,595.224,VALID,23.662,VALID,164,VALID,1.94219,
2014-03-27, 09:15:04,VALID,917.46,VALID,0,VALID,82.2643,VALID,589.637,VALID,23.6992,VALID,134,VALID,1.54219,
2014-03-27, 09:16:04,VALID,917.421,VALID,0,VALID,84.3531,VALID,605.753,VALID,23.7968,VALID,105,VALID,0.975781,
2014-03-27, 09:17:04,VALID,917.431,VALID,0,VALID,81.4562,VALID,591.034,VALID,23.953,VALID,175,VALID,1.90977,
2014-03-27, 09:18:04,VALID,917.436,VALID,0,VALID,80.9149,VALID,567.504,VALID,24.0311,VALID,166,VALID,1.7582,
2014-03-27, 09:19:04,VALID,917.418,VALID,0,VALID,81.1284,VALID,582.976,VALID,24.1287,VALID,129,VALID,1.64453,
2014-03-27, 09:20:04,VALID,917.467,VALID,0,VALID,80.61,VALID,572.017,VALID,24.2068,VALID,172,VALID,1.30703,
2014-03-27, 09:21:04,VALID,917.449,VALID,0,VALID,80.1374,VALID,566.322,VALID,24.2263,VALID,144,VALID,2.30938,
2014-03-27, 09:22:04,VALID,917.459,VALID,0,VALID,81.014,VALID,566.967,VALID,24.1287,VALID,157,VALID,2.33789,
2014-03-27, 09:23:04,VALID,917.479,VALID,0,VALID,78.9024,VALID,557.512,VALID,24.0719,VALID,141,VALID,2.89922,
2014-03-27, 09:24:04,VALID,917.467,VALID,0,VALID,80.9149,VALID,560.735,VALID,24.0311,VALID,142,VALID,1.34766,
2014-03-27, 09:25:04,VALID,917.469,VALID,0,VALID,80.9454,VALID,568.364,VALID,24.0701,VALID,177,VALID,1.79922,
2014-03-27, 09:26:04,VALID,917.461,VALID,0,VALID,81.1513,VALID,555.578,VALID,24.2458,VALID,159,VALID,0.635938,
2014-03-27, 09:27:04,VALID,917.441,VALID,0,VALID,77.7436,VALID,556.223,VALID,24.4801,VALID,206,VALID,1.93633,
2014-03-27, 09:28:04,VALID,917.479,VALID,0,VALID,77.2404,VALID,556.76,VALID,24.5954,VALID,191,VALID,2.38203,
2014-03-27, 09:29:04,VALID,917.516,VALID,0,VALID,78.0638,VALID,556.653,VALID,24.654,VALID,155,VALID,1.88203,
2014-03-27, 09:30:04,VALID,917.518,VALID,0,VALID,79.2225,VALID,546.553,VALID,24.773,VALID,153,VALID,0.990234,
2014-03-27, 09:31:04,VALID,917.515,VALID,0,VALID,78.0333,VALID,501.858,VALID,24.9274,VALID,80,VALID,2.0957,
2014-03-27, 09:32:04,VALID,917.571,VALID,0,VALID,75.8911,VALID,546.231,VALID,24.8102,VALID,124,VALID,2.04883,
2014-03-27, 09:33:04,VALID,917.592,VALID,0,VALID,77.1795,VALID,495.411,VALID,24.7144,VALID,159,VALID,2.51563,
2014-03-27, 09:34:04,VALID,917.602,VALID,0,VALID,77.3319,VALID,506.8,VALID,24.5759,VALID,164,VALID,2.24961,
2014-03-27, 09:35:04,VALID,917.601,VALID,0,VALID,77.7283,VALID,350.58,VALID,24.6187,VALID,174,VALID,1.1668,
2014-03-27, 09:36:04,VALID,917.615,VALID,0,VALID,76.1274,VALID,479.402,VALID,24.7358,VALID,197,VALID,2.14727,
2014-03-27, 09:37:04,VALID,917.554,VALID,0,VALID,77.7055,VALID,491.113,VALID,24.7926,VALID,79,VALID,1.61602,
2014-03-27, 09:38:04,VALID,917.59,VALID,0,VALID,75.9521,VALID,561.273,VALID,24.8883,VALID,150,VALID,0.79375,
2014-03-27, 09:39:04,VALID,917.558,VALID,0,VALID,76.7221,VALID,585.017,VALID,24.9683,VALID,142,VALID,2.00664,
2014-03-27, 09:40:04,VALID,917.563,VALID,0,VALID,75.5099,VALID,580.934,VALID,25.0464,VALID,170,VALID,2.2418,
2014-03-27, 09:41:04,VALID,917.574,VALID,0,VALID,76.7144,VALID,598.447,VALID,25.0074,VALID,150,VALID,2.64336,
2014-03-27, 09:42:04,VALID,917.567,VALID,0,VALID,76.0359,VALID,346.068,VALID,24.9097,VALID,158,VALID,1.425,
2014-03-27, 09:43:04,VALID,917.604,VALID,0,VALID,76.5086,VALID,450.071,VALID,24.7926,VALID,155,VALID,2.13047,
2014-03-27, 09:44:04,VALID,917.576,VALID,0,VALID,76.7602,VALID,508.197,VALID,24.6949,VALID,128,VALID,1.96602,
2014-03-27, 09:45:04,VALID,917.609,VALID,0,VALID,75.4718,VALID,629.068,VALID,24.7126,VALID,116,VALID,2.08242,
2014-03-27, 09:46:04,VALID,917.615,VALID,0,VALID,75.7691,VALID,614.134,VALID,24.8316,VALID,134,VALID,2.05234,
2014-03-27, 09:47:04,VALID,917.582,VALID,0,VALID,73.4669,VALID,589.422,VALID,24.8316,VALID,114,VALID,2.41875,
2014-03-27, 09:48:04,VALID,917.547,VALID,0,VALID,76.3104,VALID,646.903,VALID,24.9078,VALID,30,VALID,1.19258,
2014-03-27, 09:49:04,VALID,917.533,VALID,0,VALID,74.2292,VALID,456.303,VALID,25.0464,VALID,158,VALID,2.61016,
2014-03-27, 09:50:04,VALID,917.518,VALID,0,VALID,74.3817,VALID,659.796,VALID,24.9683,VALID,138,VALID,1.94336,
2014-03-27, 09:51:04,VALID,917.567,VALID,0,VALID,75.3041,VALID,655.713,VALID,25.1069,VALID,160,VALID,2.06562,
2014-03-27, 09:52:04,VALID,917.584,VALID,0,VALID,76.2037,VALID,663.557,VALID,25.1831,VALID,106,VALID,1.20664,
2014-03-27, 09:53:04,VALID,917.606,VALID,0,VALID,75.3956,VALID,547.628,VALID,25.437,VALID,125,VALID,1.85898,
2014-03-27, 09:54:04,VALID,917.591,VALID,0,VALID,73.1695,VALID,484.237,VALID,25.3589,VALID,114,VALID,2.50938,
2014-03-27, 09:55:04,VALID,917.55,VALID,0,VALID,74.5189,VALID,352.729,VALID,25.3394,VALID,139,VALID,1.83281,
2014-03-27, 09:56:04,VALID,917.57,VALID,0,VALID,72.0565,VALID,573.306,VALID,25.3374,VALID,130,VALID,2.42539,
2014-03-27, 09:57:04,VALID,917.579,VALID,0,VALID,73.9014,VALID,457.055,VALID,25.2788,VALID,131,VALID,1.73516,
2014-03-27, 09:58:04,VALID,917.576,VALID,0,VALID,72.4834,VALID,317.703,VALID,25.1617,VALID,121,VALID,2.42422,
2014-03-27, 09:59:04,VALID,917.6,VALID,0,VALID,75.6777,VALID,271.074,VALID,25.105,VALID,117,VALID,2.4168,
2014-03-27, 10:00:04,VALID,917.622,VALID,0,VALID,74.9077,VALID,360.895,VALID,25.1636,VALID,76,VALID,1.33633,
2014-03-27, 10:01:04,VALID,917.597,VALID,0,VALID,74.7323,VALID,418.913,VALID,25.1422,VALID,108,VALID,1.15508,
2014-03-27, 10:02:04,VALID,917.624,VALID,0,VALID,74.618,VALID,586.951,VALID,25.2612,VALID,91,VALID,1.29727,
2014-03-27, 10:03:04,VALID,917.564,VALID,0,VALID,74.435,VALID,473.708,VALID,25.4175,VALID,88,VALID,2.72422,
2014-03-27, 10:04:04,VALID,917.587,VALID,0,VALID,72.9713,VALID,664.416,VALID,25.4956,VALID,76,VALID,1.21758,
2014-03-27, 10:05:04,VALID,917.545,VALID,0,VALID,71.744,VALID,729.418,VALID,25.4565,VALID,87,VALID,2.59648,
2014-03-27, 10:06:04,VALID,917.573,VALID,0,VALID,74.0539,VALID,750.906,VALID,25.5523,VALID,92,VALID,1.51836,
2014-03-27, 10:07:04,VALID,917.571,VALID,0,VALID,70.7758,VALID,650.234,VALID,25.7105,VALID,109,VALID,1.62227,
2014-03-27, 10:08:04,VALID,917.579,VALID,0,VALID,71.0807,VALID,735.757,VALID,25.8667,VALID,145,VALID,1.39102,
2014-03-27, 10:09:04,VALID,917.514,VALID,0,VALID,70.4251,VALID,705.459,VALID,26.0425,VALID,187,VALID,0.525,
2014-03-27, 10:10:04,VALID,917.557,VALID,0,VALID,68.4888,VALID,727.269,VALID,26.275,VALID,154,VALID,1.28242,
2014-03-27, 10:11:04,VALID,917.538,VALID,0,VALID,69.556,VALID,696.219,VALID,26.3922,VALID,169,VALID,2.68828,
2014-03-27, 10:12:04,VALID,917.543,VALID,0,VALID,69.6018,VALID,621.332,VALID,26.5309,VALID,142,VALID,0.767969,
2014-03-27, 10:13:04,VALID,917.605,VALID,0,VALID,66.9412,VALID,705.459,VALID,26.7068,VALID,149,VALID,1.89766,
2014-03-27, 10:14:04,VALID,917.592,VALID,0,VALID,67.3986,VALID,659.796,VALID,26.2945,VALID,133,VALID,2.90781,
2014-03-27, 10:15:04,VALID,917.581,VALID,0,VALID,69.335,VALID,468.014,VALID,26.1968,VALID,164,VALID,1.86484,
2014-03-27, 10:16:04,VALID,917.605,VALID,0,VALID,70.0592,VALID,386.681,VALID,26.0601,VALID,142,VALID,2.04883,
2014-03-27, 10:17:04,VALID,917.6,VALID,0,VALID,70.4022,VALID,329.2,VALID,25.8843,VALID,144,VALID,2.37539,
2014-03-27, 10:18:04,VALID,917.547,VALID,0,VALID,69.9906,VALID,521.304,VALID,25.6694,VALID,92,VALID,3.17461,
2014-03-27, 10:19:04,VALID,917.549,VALID,0,VALID,70.9893,VALID,656.573,VALID,25.5327,VALID,155,VALID,1.45391,
2014-03-27, 10:20:04,VALID,917.521,VALID,0,VALID,69.983,VALID,784.75,VALID,25.6323,VALID,175,VALID,0.947656,
2014-03-27, 10:21:04,VALID,917.5,VALID,0,VALID,70.6919,VALID,803.015,VALID,25.8257,VALID,130,VALID,1.70391,
2014-03-27, 10:22:04,VALID,917.499,VALID,0,VALID,69.2435,VALID,826.008,VALID,25.8648,VALID,113,VALID,2.00859,
2014-03-27, 10:23:04,VALID,917.546,VALID,0,VALID,70.6157,VALID,395.491,VALID,25.9624,VALID,155,VALID,1.55898,
2014-03-27, 10:24:04,VALID,917.511,VALID,0,VALID,67.2462,VALID,349.399,VALID,25.9624,VALID,114,VALID,2.0543,
2014-03-27, 10:25:04,VALID,917.485,VALID,0,VALID,69.9906,VALID,347.142,VALID,25.8452,VALID,181,VALID,1.42305,
2014-03-27, 10:26:04,VALID,917.5,VALID,0,VALID,69.8534,VALID,402.475,VALID,25.9058,VALID,159,VALID,1.63555,
2014-03-27, 10:27:04,VALID,917.451,VALID,0,VALID,67.8713,VALID,564.281,VALID,25.7866,VALID,173,VALID,2.16445,
2014-03-27, 10:28:04,VALID,917.48,VALID,0,VALID,70.6081,VALID,771.427,VALID,25.8648,VALID,156,VALID,0.978516,
2014-03-27, 10:29:04,VALID,917.459,VALID,0,VALID,69.6933,VALID,861.356,VALID,25.8843,VALID,145,VALID,1.84727,
2014-03-27, 10:30:04,VALID,917.451,VALID,0,VALID,69.8686,VALID,861.033,VALID,26.1773,VALID,166,VALID,1.35781,
2014-03-27, 10:31:04,VALID,917.414,VALID,0,VALID,67.0708,VALID,858.562,VALID,26.5485,VALID,90,VALID,1.41328,
2014-03-27, 10:32:04,VALID,917.454,VALID,0,VALID,66.3161,VALID,880.373,VALID,26.6266,VALID,162,VALID,1.69297,
2014-03-27, 10:33:04,VALID,917.436,VALID,0,VALID,65.0277,VALID,866.835,VALID,26.7047,VALID,143,VALID,2.96758,
2014-03-27, 10:34:04,VALID,917.415,VALID,0,VALID,66.7811,VALID,854.372,VALID,26.6441,VALID,132,VALID,1.85703,
2014-03-27, 10:35:04,VALID,917.399,VALID,0,VALID,65.508,VALID,867.265,VALID,26.6657,VALID,134,VALID,3.01875,
2014-03-27, 10:36:04,VALID,917.425,VALID,0,VALID,68.2753,VALID,897.026,VALID,26.6246,VALID,117,VALID,1.52383,
2014-03-27, 10:37:04,VALID,917.41,VALID,0,VALID,66.6668,VALID,888.323,VALID,26.9001,VALID,98,VALID,1.93516,
2014-03-27, 10:38:04,VALID,917.387,VALID,0,VALID,64.3797,VALID,924.746,VALID,26.861,VALID,180,VALID,2.5457,
2014-03-27, 10:39:04,VALID,917.343,VALID,0,VALID,66.0188,VALID,912.068,VALID,27.0174,VALID,111,VALID,2.71719,
2014-03-27, 10:40:04,VALID,917.364,VALID,0,VALID,66.4076,VALID,897.241,VALID,27.0935,VALID,135,VALID,2.36758,
2014-03-27, 10:41:04,VALID,917.309,VALID,0,VALID,62.4891,VALID,922.705,VALID,27.1346,VALID,151,VALID,1.87383,
2014-03-27, 10:42:04,VALID,917.338,VALID,0,VALID,63.5793,VALID,929.044,VALID,27.0955,VALID,173,VALID,2.675,
2014-03-27, 10:43:04,VALID,917.286,VALID,0,VALID,63.3735,VALID,933.019,VALID,27.0739,VALID,113,VALID,3.79609,
2014-03-27, 10:44:04,VALID,917.303,VALID,0,VALID,66.8878,VALID,952.466,VALID,27.1346,VALID,110,VALID,2.03633,
2014-03-27, 10:45:04,VALID,917.277,VALID,0,VALID,62.6797,VALID,971.161,VALID,27.1716,VALID,111,VALID,2.11641,
2014-03-27, 10:46:04,VALID,917.21,VALID,0,VALID,62.169,VALID,920.771,VALID,27.1521,VALID,45,VALID,2.25898,
2014-03-27, 10:47:04,VALID,917.225,VALID,0,VALID,62.2452,VALID,628.853,VALID,27.1716,VALID,184,VALID,2.25977,
2014-03-27, 10:48:04,VALID,917.226,VALID,0,VALID,64.9744,VALID,552.033,VALID,27.1911,VALID,170,VALID,2.64961,
2014-03-27, 10:49:04,VALID,917.186,VALID,0,VALID,66.8878,VALID,547.95,VALID,27.1521,VALID,82,VALID,1.72852,
2014-03-27, 10:50:04,VALID,917.206,VALID,0,VALID,66.2475,VALID,465.757,VALID,27.0935,VALID,39,VALID,2.33867,
2014-03-27, 10:51:04,VALID,917.226,VALID,0,VALID,64.1587,VALID,454.154,VALID,27.0544,VALID,95,VALID,1.73047,
2014-03-27, 10:52:04,VALID,917.238,VALID,0,VALID,64.7914,VALID,475.427,VALID,26.8981,VALID,118,VALID,1.95039,
2014-03-27, 10:53:04,VALID,917.187,VALID,0,VALID,66.1789,VALID,562.562,VALID,26.859,VALID,93,VALID,0.797266,
2014-03-27, 10:54:04,VALID,917.224,VALID,0,VALID,64.3721,VALID,720.608,VALID,26.9176,VALID,144,VALID,2.88594,
2014-03-27, 10:55:04,VALID,917.225,VALID,0,VALID,63.5945,VALID,1029.39,VALID,26.7613,VALID,138,VALID,3.49023,
2014-03-27, 10:56:04,VALID,917.186,VALID,0,VALID,66.6058,VALID,1057.65,VALID,26.7223,VALID,146,VALID,1.8875,
2014-03-27, 10:57:04,VALID,917.181,VALID,0,VALID,64.4179,VALID,947.846,VALID,26.8004,VALID,129,VALID,2.69727,
2014-03-27, 10:58:04,VALID,917.161,VALID,0,VALID,63.4726,VALID,952.036,VALID,26.8199,VALID,167,VALID,4.53945,
2014-03-27, 10:59:04,VALID,917.122,VALID,0,VALID,64.982,VALID,571.802,VALID,26.8981,VALID,141,VALID,2.59687,
2014-03-27, 11:00:04,VALID,917.136,VALID,0,VALID,64.0596,VALID,440.724,VALID,26.9546,VALID,159,VALID,3.68203,
2014-03-27, 11:01:04,VALID,917.113,VALID,0,VALID,65.2717,VALID,423.855,VALID,26.8004,VALID,89,VALID,2.96172,
2014-03-27, 11:02:04,VALID,917.057,VALID,0,VALID,67.1699,VALID,412.359,VALID,26.6812,VALID,60,VALID,4.14414,
2014-03-27, 11:03:04,VALID,917.143,VALID,0,VALID,68.4049,VALID,406.235,VALID,26.6246,VALID,92,VALID,1.86719,
2014-03-27, 11:04:04,VALID,917.059,VALID,0,VALID,66.4609,VALID,406.772,VALID,26.6636,VALID,67,VALID,1.4625,